Location: Unspecified
(43.4680°N, 87.1740°E)
Time: 20:05:53
(UTC+00:00)

NOSS 0 Rocket - Pass Details

Date: 29 July 2021
Orbit: 936 x 954 km, 70.0° (Epoch: 22 September)

Event Time Altitude Azimuth Distance (km) Brightness Sun altitude
Rises 17:54:52 0° 333° (NNW) 3,636 8.1 -27.7°
Reaches altitude 10° 17:57:25 10° 334° (NNW) 2,686 7.1 -27.8°
Maximum altitude 18:03:40 89° 59° (ENE) 955 3.8 -27.9°
Enters shadow 18:04:07 78° 151° (SSE) 972 3.8 -27.9°
